"Time","Temp","Dewpoint","Humidity","Pressure","Direction","Speed","Gust","Precip","PrecipRate"
"00:04:59","41.1","37.5","87","29.86","204","0.3","2.4","0.00","0.00"
"00:09:56","41","37.4","87","29.86","204","0.1","1.2","0.00","0.00"
"00:14:56","41","37.4","87","29.86","204","0","0","0.00","0.00"
"00:19:57","40.9","37.3","87","29.86","204","0","0","0.00","0.00"
"00:24:57","40.8","37.2","87","29.86","204","0","0","0.00","0.00"
"00:29:57","40.7","37.2","87.3","29.86","204","0","0","0.00","0.00"
"00:34:56","40.6","37.3","88","29.86","204","0","0","0.00","0.00"
"00:39:57","40.5","37.2","88","29.86","204","0","0","0.00","0.00"
"00:44:56","40.5","37.2","88","29.86","204","0","0","0.00","0.00"
"00:49:56","40.4","37.1","88","29.86","204","0.8","2.4","0.00","0.00"
"00:54:59","40.4","37.1","88","29.86","204","0.8","2.4","0.00","0.00"
"00:59:59","40.4","37.1","88","29.86","204","0.3","2.4","0.00","0.00"
"01:04:59","40.3","37","88.1","29.86","204","0.4","2.4","0.00","0.00"
"01:09:58","40.2","37","88.1","29.86","204","0","1.2","0.00","0.00"
"01:14:58","40.1","36.8","88","29.86","204","0","0","0.00","0.00"
"01:19:58","40","36.9","88.5","29.86","204","0","1.2","0.00","0.00"
"01:24:58","40","37","89","29.86","204","0","0","0.00","0.00"
"01:29:58","39.9","36.9","89","29.86","204","0","0","0.00","0.00"
"01:34:57","39.8","36.8","89","29.86","204","0","0","0.00","0.00"
"01:39:58","39.7","36.7","89","29.86","204","0","0","0.00","0.00"
"01:44:58","39.7","36.7","89","29.86","204","0","0","0.00","0.00"
"01:49:58","39.5","36.7","89.4","29.86","204","0","0","0.00","0.00"
"01:54:57","39.4","36.4","89","29.86","204","0","0","0.00","0.00"
"01:59:57","39.3","36.3","89","29.86","204","0","0","0.00","0.00"
"02:02:08","39.2","36.2","89","29.86","204","0","0","0.00","0.00"
"02:09:56","39","36.3","90","29.86","204","0","0","0.00","0.00"
"02:14:57","38.9","36.2","90","29.86","204","0","0","0.00","0.00"
"02:19:59","38.8","36.1","90","29.86","204","0","1.2","0.00","0.00"
"02:24:58","38.8","36.2","90.4","29.86","204","0","1.2","0.00","0.00"
"02:29:56","38.7","36.3","91","29.86","204","0.1","1.2","0.00","0.00"
"02:34:59","38.7","36.3","91","29.86","204","0.1","1.2","0.00","0.00"
"02:39:59","38.6","36.2","91","29.86","204","0","0","0.00","0.00"
"02:44:57","38.5","35.9","90.3","29.86","204","0","0","0.00","0.00"
"02:49:57","38.4","36","91","29.86","204","0","0","0.00","0.00"
"02:54:59","38.3","35.9","91","29.86","204","0","1.2","0.00","0.00"
"02:59:58","38.2","35.8","91","29.86","204","0","0","0.00","0.00"
"03:04:56","38.2","35.8","91","29.85","204","0","0","0.00","0.00"
"03:09:59","38.2","35.8","91","29.85","204","0","0","0.00","0.00"
"03:14:59","38.1","35.9","91.7","29.85","204","0","0","0.00","0.00"
"03:19:58","38.1","35.9","91.8","29.85","204","0","0","0.00","0.00"
"03:24:56","38","35.9","92","29.85","204","0","0","0.00","0.00"
"03:29:59","37.9","35.8","91.9","29.85","204","0","1.2","0.00","0.00"
"03:34:58","38","35.9","92","29.84","204","0.1","1.2","0.00","0.00"
"03:39:58","38.1","36","92","29.84","204","0","0","0.00","0.00"
"03:44:57","38.1","36","92","29.84","204","0","0","0.00","0.00"
"03:49:56","38","35.8","91.8","29.84","204","0","0","0.00","0.00"
"03:54:59","37.9","35.6","91.2","29.84","204","0","0","0.00","0.00"
"03:59:58","37.8","35.7","92","29.84","204","0","0","0.00","0.00"
"04:04:57","37.9","35.8","92","29.84","204","0","0","0.00","0.00"
"04:09:56","38","36","92.4","29.84","204","0.1","2.4","0.00","0.00"
"04:14:56","38.1","36.3","93","29.84","204","0.1","2.4","0.00","0.00"
"04:19:59","38.3","36.5","93","29.84","204","1","2.4","0.00","0.00"
"04:24:57","38.4","36.5","92.5","29.84","204","0.1","1.2","0.00","0.00"
"04:29:57","38.5","36.4","92.1","29.84","204","0","0","0.00","0.00"
"04:34:59","38.5","36.4","92","29.83","204","0","0","0.00","0.00"
"04:39:56","38.5","36.4","92","29.83","204","0","0","0.00","0.00"
"04:44:56","38.5","36.4","92","29.83","204","0","0","0.00","0.00"
"04:49:57","38.5","36.4","92","29.83","204","0","0","0.00","0.00"
"04:54:59","38.5","36.5","92.3","29.83","204","0","0","0.00","0.00"
"04:59:56","38.6","36.8","93","29.83","204","0","0","0.00","0.00"
"05:04:56","38.7","36.9","93","29.83","204","0","0","0.00","0.00"
"05:09:58","38.9","37","93","29.83","204","0","0","0.00","0.00"
"05:14:56","39.4","37.5","93","29.83","204","0","0","0.00","0.00"
"05:19:57","39.6","37.7","93","29.83","204","0","0","0.00","0.00"
"05:24:58","39.8","37.9","93","29.83","204","0","0","0.00","0.00"
"05:29:57","40","38.1","93","29.83","204","0","0","0.00","0.00"
"05:34:58","40","38.1","93","29.83","204","0","0","0.00","0.00"
"05:39:56","40.2","38.3","93","29.83","204","0","0","0.00","0.00"
"05:44:58","40.3","38.4","93","29.84","204","0","0","0.00","0.00"
"05:49:57","40.5","38.4","92.1","29.84","204","0.1","1.2","0.00","0.00"
"05:54:58","40.6","38.5","92","29.84","204","0","0","0.00","0.00"
"05:59:57","40.7","38.4","91.3","29.84","204","0","0","0.00","0.00"
"06:04:56","40.8","38.4","91","29.84","204","0","0","0.00","0.00"
"06:09:59","41","38.5","90.8","29.84","204","0","0","0.00","0.00"
"06:14:58","41.1","38.7","91","29.85","204","0","0","0.00","0.00"
"06:19:57","41.3","38.9","91","29.85","204","0","0","0.00","0.00"
"06:24:59","41.4","38.8","90.4","29.85","204","0","0","0.00","0.00"
"06:29:57","41.6","38.8","89.6","29.85","203","0.3","2.4","0.00","0.00"
"06:34:58","41.9","38.7","88.2","29.85","203","0","1.2","0.00","0.00"
"06:39:58","42.3","38.8","87.2","29.85","203","0.3","2.4","0.00","0.00"
"06:44:59","42.5","38.6","85.9","29.85","203","0.2","2.4","0.00","0.00"
"06:49:58","42.8","38.6","85","29.85","203","0.2","2.4","0.00","0.00"
"06:54:56","43.1","38.7","84.5","29.85","203","0.5","2.4","0.00","0.00"
"06:59:58","43.2","39","84.8","29.85","203","0","0","0.00","0.00"
"07:04:57","43.3","39.1","85","29.85","203","0.2","1.2","0.00","0.00"
"07:09:56","43.4","39.4","85.6","29.85","203","0","0","0.00","0.00"
"07:14:59","43.4","39.2","85","29.85","203","0","0","0.00","0.00"
"07:19:58","43.3","39.2","85","29.85","203","0","0","0.00","0.00"
"07:24:56","43.3","39.1","85","29.85","203","0","1.2","0.00","0.00"
"07:29:58","43.4","39.2","85","29.85","203","0.5","2.4","0.00","0.00"
"07:34:56","43.5","39.2","84.7","29.85","203","0","0","0.00","0.00"
"07:39:59","43.7","39.6","85.5","29.85","203","0","0","0.00","0.00"
"07:44:57","43.8","39.9","86","29.85","203","0","0","0.00","0.00"
"07:49:56","43.9","40","86","29.85","203","0","0","0.00","0.00"
"07:54:57","44.1","40.4","86.8","29.85","203","0","0","0.00","0.00"
"07:59:56","44.2","40.1","85.4","29.86","203","0","0","0.00","0.00"
"08:04:59","44.3","40.3","85.5","29.86","203","0","0","0.00","0.00"
"08:09:58","44.5","40.4","85.5","29.86","203","0","0","0.00","0.00"
"08:14:57","44.6","40.5","85.2","29.86","203","0","0","0.00","0.00"
"08:19:59","44.8","40.3","84.2","29.86","203","0.5","2.4","0.00","0.00"
"08:24:56","45","40.8","85","29.86","203","0","1.2","0.00","0.00"
"08:29:57","45.2","40.7","84.1","29.87","203","0","0","0.00","0.00"
"08:34:59","45.3","40.5","83.4","29.87","203","0","0","0.00","0.00"
"08:39:58","45.5","40.6","83","29.87","203","0.3","1.2","0.00","0.00"
"08:44:59","45.6","40.7","83","29.87","203","1","2.4","0.00","0.00"
"08:49:56","45.8","41.2","83.9","29.87","202","0.8","2.4","0.00","0.00"
"08:54:58","45.9","40.9","82.6","29.87","163","1.7","3.6","0.00","0.00"
"08:59:56","46.1","41.1","82.8","29.87","159","0.2","1.2","0.00","0.00"
"09:04:59","46.2","41.1","82.4","29.87","159","0.9","2.4","0.00","0.00"
"09:09:58","46.6","41.5","82.5","29.87","159","0.3","2.3","0.00","0.00"
"09:14:57","48","42.1","79.8","29.87","159","0.1","1.2","0.00","0.00"
"09:19:59","49.2","42.6","78.1","29.87","159","0.7","2.4","0.00","0.00"
"09:24:56","49.5","42.9","78.2","29.87","159","1.3","3.6","0.00","0.00"
"09:29:58","50.2","43.1","76.6","29.87","159","1.4","4.8","0.00","0.00"
"09:34:59","50.7","43.2","75.4","29.87","159","1.7","4.8","0.00","0.00"
"09:39:58","51.1","42.6","72.8","29.87","159","0.9","3.6","0.00","0.00"
"09:44:56","51.5","43.2","73.2","29.87","159","1.7","3.6","0.00","0.00"
"09:49:57","52.1","43.5","72.4","29.87","190","2.3","4.8","0.00","0.00"
"09:54:59","52.6","43.1","70","29.87","197","2.2","4.8","0.00","0.00"
"09:59:56","53.4","43.5","68.9","29.87","181","3.1","6","0.00","0.00"
"10:04:59","53.6","42.9","67","29.87","191","3.3","7.2","0.00","0.00"
"10:09:58","53.7","42.8","66.5","29.87","226","2.8","5.8","0.00","0.00"
"10:14:56","54.7","43.4","65.5","29.87","213","2.9","4.8","0.00","0.00"
"10:19:58","54.9","43.1","64.4","29.87","205","2.3","4.6","0.00","0.00"
"10:24:59","54.8","43.1","64.7","29.87","205","2.2","4.8","0.00","0.00"
"10:29:57","55.3","42.7","62.5","29.87","204","3.1","6","0.00","0.00"
"10:34:58","56.5","42.7","60","29.87","227","3.1","7.2","0.00","0.00"
"10:39:56","57.6","43.3","58.8","29.87","241","2.4","8.4","0.00","0.00"
"10:44:57","59","43.8","57.1","29.87","215","4","7.2","0.00","0.00"
"10:49:59","58.5","42.4","55.1","29.86","273","4.7","15","0.00","0.00"
"10:54:56","57.3","41.7","56","29.86","257","3.7","7.2","0.00","0.00"
"10:59:58","57","41.9","56.9","29.86","253","4.7","12","0.00","0.00"
"11:04:56","57.5","42.5","57.2","29.86","208","5.8","13.2","0.00","0.00"
"11:09:59","58.3","42.9","56.7","29.86","229","3.4","7.2","0.00","0.00"
"11:14:57","59.7","44.1","56.2","29.86","264","3","7.2","0.00","0.00"
"11:19:59","59.8","44.1","56.2","29.86","218","3.7","8.4","0.00","0.00"
"11:24:56","59.7","43.2","54.6","29.86","271","3.8","13.2","0.00","0.00"
"11:29:59","58.5","42","54.1","29.86","246","4.6","9.2","0.00","0.00"
"11:34:57","58.2","43","57.1","29.86","216","3.5","7.2","0.00","0.00"
"11:39:59","57.8","42.9","57.5","29.86","198","3.2","6.9","0.00","0.00"
"11:44:56","57.5","42.4","57","29.86","210","3.6","8.4","0.00","0.00"
"11:49:58","57.7","42.6","57.1","29.85","207","3.2","8.4","0.00","0.00"
"11:54:59","57.9","42.9","57.3","29.85","232","4.3","8.4","0.00","0.00"
"11:59:57","57.9","42.7","56.9","29.85","215","4.5","8.1","0.00","0.00"
"12:04:56","58.5","43.2","56.7","29.85","257","3.7","12","0.00","0.00"
"12:09:59","59.8","44.2","56.2","29.85","236","4.5","13.2","0.00","0.00"
"12:14:57","59.9","43.4","54.4","29.85","266","4.8","13.2","0.00","0.00"
"12:19:59","61.2","44.7","54.8","29.85","236","3.4","10.8","0.00","0.00"
"12:24:57","61.5","43.6","51.9","29.85","294","3.9","8.4","0.00","0.00"
"12:29:59","61","43.7","52.9","29.85","270","2.9","8.4","0.00","0.00"
"12:34:58","60.2","43.3","53.8","29.84","260","3.3","8.4","0.00","0.00"
"12:39:59","59.9","43","53.7","29.84","228","1.9","6","0.00","0.00"
"12:44:57","60.5","43.8","54.3","29.84","196","3.6","8.4","0.00","0.00"
"12:49:56","62.2","45.1","53.6","29.83","205","5.7","16.1","0.00","0.00"
"12:54:58","62.1","43.3","50.1","29.83","263","5.8","16.1","0.00","0.00"
"12:59:58","62.1","44.6","52.7","29.83","236","3.4","10.8","0.00","0.00"
"13:04:57","62.3","44.6","52.4","29.83","206","4.2","10.8","0.00","0.00"
"13:09:59","61.2","43.7","52.7","29.83","230","4.4","10.4","0.00","0.00"
"13:14:59","60.7","43.7","53.5","29.83","245","4.1","7.2","0.00","0.00"
"13:19:59","60.6","44","54.2","29.82","195","3.6","6.9","0.00","0.00"
"13:24:58","60.2","43.5","53.9","29.82","202","3.6","7.2","0.00","0.00"
"13:29:57","59.8","43.7","55.1","29.82","183","2.8","6","0.00","0.00"
"13:34:57","59.7","43.6","55.3","29.82","207","3.1","7.2","0.00","0.00"
"13:39:58","59.5","43.2","54.9","29.82","214","1.2","2.4","0.00","0.00"
"13:44:57","59.4","43.6","55.8","29.82","213","2.2","3.6","0.00","0.00"
"13:49:56","59.3","43.4","55.5","29.81","213","1.7","4.8","0.00","0.00"
"13:54:59","59.5","44.2","56.9","29.81","213","2.1","3.6","0.00","0.00"
"13:59:58","59.8","45.4","59","29.81","212","1.4","3.6","0.00","0.00"
"14:04:58","60","44.9","57.2","29.80","211","2.4","4.8","0.00","0.00"
"14:09:56","60.2","44.7","56.6","29.80","208","2.7","4.8","0.00","0.00"
"14:14:56","60.2","45","57.1","29.80","185","2.8","6","0.00","0.00"
"14:19:56","60.3","44.8","56.7","29.80","174","3.6","8.4","0.00","0.00"
"14:24:59","60.4","43.9","54.6","29.80","235","4.4","8.4","0.00","0.00"
"14:29:58","60.9","44","53.9","29.80","208","3.9","10.8","0.00","0.00"
"14:34:58","61.4","44.6","53.8","29.79","228","4.3","12","0.00","0.00"
"14:39:57","62.5","44.7","52.1","29.79","205","4.9","11.5","0.00","0.00"
"14:44:59","62.8","44.5","51.2","29.79","229","5.8","13.2","0.00","0.00"
"14:49:58","62","43.9","51.5","29.79","224","4.5","12.7","0.00","0.00"
"14:54:57","63.7","46.4","53.3","29.79","220","3.8","7.2","0.00","0.00"
"14:59:57","64.8","46.1","50.9","29.79","203","3.3","7.2","0.00","0.00"
"15:04:56","64.4","45","49.4","29.78","172","3.3","6.9","0.00","0.00"
"15:09:58","64.7","45.4","49.7","29.78","198","4","8.4","0.00","0.00"
"15:14:58","62.7","44.5","51.4","29.78","171","4","13.2","0.00","0.00"
"15:19:58","62.9","45.9","53.8","29.76","171","3.3","6","0.00","0.00"
"15:24:57","63.2","45.7","52.9","29.76","192","4.1","7.2","0.00","0.00"
"15:29:56","62.2","44.4","52.1","29.79","188","3.6","7.2","0.00","0.00"
"15:34:56","61.7","43.9","51.9","29.79","151","2.8","7.2","0.00","0.00"
"15:39:56","61.5","44.2","53","29.79","145","2","4.8","0.00","0.00"
"15:44:59","61.4","44.8","54.3","29.79","170","2.5","6","0.00","0.00"
"15:49:59","61.6","45.2","54.8","29.78","204","2.5","6","0.00","0.00"
"15:54:58","63.2","46.9","55.5","29.78","187","2.6","6","0.00","0.00"
"15:59:57","64.2","45.7","51.1","29.78","188","3.2","7.2","0.00","0.00"
"16:04:56","63.7","45.1","50.9","29.77","221","4.9","9.6","0.00","0.00"
"16:09:59","62.8","44.3","50.9","29.77","187","4.1","8.1","0.00","0.00"
"16:14:59","62.1","44.1","51.8","29.77","181","4.1","8.4","0.00","0.00"
"16:19:58","61.7","43.9","52","29.77","186","2.5","6.9","0.00","0.00"
"16:24:58","61.5","44.4","53.3","29.77","181","1","4.6","0.00","0.00"
"16:29:57","61.5","44.2","53.1","29.77","142","1","3.6","0.00","0.00"
"16:34:56","61.4","44.2","53.1","29.77","134","1.5","3.6","0.00","0.00"
"16:39:56","61.4","44.6","54.1","29.77","135","0.9","3.6","0.00","0.00"
"16:44:59","61.3","44.2","53.4","29.77","142","1.6","4.8","0.00","0.00"
"16:49:59","61.4","45","54.9","29.77","150","1.5","4.8","0.00","0.00"
"16:54:58","61.4","44.4","53.6","29.77","157","1.8","4.8","0.00","0.00"
"16:59:57","61.4","45.1","55","29.77","158","0.6","2.4","0.00","0.00"
"17:04:57","61.4","45.1","55.1","29.77","148","1","4.8","0.00","0.00"
"17:09:59","61.3","45","54.9","29.77","146","1.4","4.8","0.00","0.00"
"17:14:59","61.2","44.5","54.2","29.77","145","1.3","3.6","0.00","0.00"
"17:19:59","61.1","44.9","55.2","29.77","153","1.3","4.8","0.00","0.00"
"17:24:58","60.9","44.9","55.5","29.77","148","2.3","4.8","0.00","0.00"
"17:29:57","60.7","45.4","57","29.77","155","1.5","3.6","0.00","0.00"
"17:34:56","60.6","45.6","57.8","29.77","164","1.5","4.8","0.00","0.00"
"17:39:57","60.3","46.7","60.8","29.77","165","0.6","3.6","0.00","0.00"
"17:44:56","59.9","47.5","63.3","29.77","163","1.3","3.6","0.00","0.00"
"17:49:59","59.5","48.5","66.9","29.77","145","1.3","3.6","0.00","0.00"
"17:54:58","59","48.5","68.2","29.77","155","1.1","7.2","0.00","0.00"
"17:59:58","58.3","48.3","69.1","29.80","201","7.7","18","0.00","0.00"
"18:04:57","57.6","48.3","71.3","29.80","203","6.6","18.4","0.00","0.00"
"18:09:59","56.9","48.2","72.7","29.80","204","6.7","18.4","0.00","0.00"
"18:14:59","56.4","48.6","75.1","29.80","215","6.1","12","0.01","0.01"
"18:19:59","55.7","49.2","78.7","29.80","208","3.6","10.4","0.02","0.02"
"18:24:59","55","49.6","81.7","29.80","227","2.1","4.8","0.03","0.03"
"18:29:58","54.7","49.7","83.2","29.80","221","0.3","2.4","0.04","0.04"
"18:34:58","54.4","49.7","84","29.80","221","0.2","2.4","0.04","0.04"
"18:39:59","54.2","50","85.4","29.80","221","0.4","1.2","0.04","0.04"
"18:44:58","54.2","50.4","87.1","29.80","221","0","1.2","0.04","0.04"
"18:49:58","54","50.4","87.6","29.80","221","0","0","0.04","0.04"
"18:54:57","53.9","50.4","88","29.80","198","0","2.4","0.04","0.04"
"18:59:57","53.8","50.1","87.6","29.80","198","1.5","3.6","0.04","0.04"
"19:04:57","53.7","50.2","88","29.80","199","0.8","2.4","0.04","0.04"
"19:09:59","53.6","50.1","88","29.80","199","1.5","3.6","0.04","0.04"
"19:14:56","53.6","50","87.7","29.81","196","1.9","6","0.04","0.04"
"19:19:56","53.6","49.7","86.8","29.81","192","2.6","5.8","0.04","0.03"
"19:24:59","53.6","49.9","87.2","29.81","192","1.1","2.4","0.04","0.02"
"19:29:59","53.6","50.1","88","29.82","192","0.9","3.6","0.04","0.01"
"19:34:58","53.5","49.9","87.5","29.82","193","1","3.6","0.04","0.00"
"19:39:59","53.4","49.6","87","29.82","194","0.9","7.2","0.04","0.00"
"19:44:58","53.4","49.1","85.2","29.82","188","4.6","9.6","0.04","0.00"
"19:49:58","53.6","49","84.3","29.80","172","2.3","6.9","0.04","0.00"
"19:54:57","53.7","49","83.9","29.80","206","4.6","12","0.04","0.00"
"19:59:57","53.7","49","83.9","29.81","217","3.5","8.1","0.04","0.00"
"20:04:57","53.7","49","84","29.81","206","3.2","6","0.04","0.00"
"20:09:56","53.6","49","84.3","29.81","241","2.7","6","0.04","0.00"
"20:14:56","53.4","48.8","84.6","29.82","243","2.8","7.2","0.04","0.00"
"20:19:56","53.2","48.7","84.8","29.82","238","1.7","3.6","0.04","0.00"
"20:24:56","53","48.6","85","29.82","229","0.3","2.4","0.04","0.00"
"20:29:56","52.8","48.4","85.2","29.82","229","0.8","2.4","0.04","0.00"
"20:34:56","52.5","48.2","85.4","29.82","229","0.9","2.4","0.04","0.00"
"20:39:56","52.2","48.1","86","29.82","226","1.5","4.8","0.04","0.00"
"20:44:56","51.9","47.5","85","29.82","218","1.8","4.8","0.04","0.00"
"20:49:56","51.7","47.3","85","29.82","214","1.6","3.6","0.04","0.00"
"20:54:56","51.5","47.4","85.8","29.82","214","1.2","2.4","0.04","0.00"
"20:59:56","51.4","47.4","86","29.83","214","0.2","2.4","0.04","0.00"
"21:04:59","51.4","47.4","86","29.83","214","0","2.3","0.04","0.00"
"21:09:58","51.5","47.5","86.2","29.83","214","0","1.2","0.04","0.00"
"21:14:58","51.4","47.7","87","29.83","214","0.5","2.4","0.04","0.00"
"21:19:58","51.3","47.9","87.9","29.82","214","0.4","1.2","0.04","0.00"
"21:24:57","51.2","47.8","88","29.82","214","0.8","2.4","0.04","0.00"
"21:29:57","50.9","47.5","88.1","29.82","214","0","1.2","0.04","0.00"
"21:34:56","50.7","47.7","89.4","29.82","214","0.1","2.4","0.04","0.00"
"21:39:57","50.6","48","90.8","29.82","214","1.6","3.6","0.04","0.00"
"21:44:57","50.5","48","91","29.82","228","1.6","3.6","0.04","0.00"
"21:49:59","50.5","48","91","29.82","229","0.2","2.4","0.04","0.00"
"21:54:58","50.4","47.9","91","29.82","229","0.1","2.3","0.04","0.00"
"21:59:58","50.4","47.9","91","29.83","229","0.1","1.2","0.04","0.00"
"22:04:57","50.4","48.1","91.8","29.83","229","0","0","0.04","0.00"
"22:09:56","50.4","48.2","92","29.83","229","0","0","0.04","0.00"
"22:14:57","50.4","48.2","92","29.83","229","0.1","1.2","0.04","0.00"
"22:19:57","50.4","48.3","92.2","29.83","229","0","1.2","0.04","0.00"
"22:24:56","50.5","48.6","92.9","29.83","229","0","0","0.04","0.00"
"22:29:56","50.5","48.6","93","29.83","229","0","0","0.04","0.00"
"22:34:56","50.5","48.6","93","29.83","229","0","0","0.04","0.00"
"22:39:57","50.5","48.6","93","29.83","229","0","0","0.04","0.00"
"22:44:57","50.5","48.5","92.9","29.83","229","0","0","0.04","0.00"
"22:49:57","50.4","48.3","92.4","29.83","229","0","0","0.04","0.00"
"22:54:56","50.4","48.5","93","29.83","229","0","0","0.04","0.00"
"22:59:56","50.4","48.5","93","29.83","229","0.1","1.2","0.04","0.00"
"23:04:56","50.5","48.6","93","29.83","229","0.1","1.2","0.04","0.00"
"23:09:58","50.6","48.7","93","29.83","229","0","0","0.04","0.00"
"23:14:59","50.6","48.7","93","29.84","229","0","0","0.04","0.00"
"23:19:59","50.5","48.6","93","29.84","229","0.2","2.4","0.04","0.00"
"23:24:59","50.5","48.6","93","29.84","229","0","0","0.04","0.00"
"23:29:59","50.4","48.5","93","29.84","229","0.5","2.4","0.04","0.00"
"23:34:59","50.4","48.5","93.3","29.84","229","0.6","2.4","0.04","0.00"
"23:39:56","50.3","48.4","93","29.84","229","0.2","1.2","0.04","0.00"
"23:44:56","50.3","48.4","93","29.84","229","0","0","0.04","0.00"
